www.pogodaiklimat.ru

ПОГОДА на Базе ВВС Уилер Арми, HI

  • Прогноз погоды на Базе ВВС Уилер Арми
  • Монитор погоды на Базе ВВС Уилер Арми
  • Климат на Базе ВВС Уилер Арми

АРХИВ ПОГОДЫ на Базе ВВС Уилер Арми

Время (UTC), дата Ветер
(напр.,м/с)
 
Видим.   Явления Облачность Т
(С)
Тd
(С)
f
(%)
Тe
(С)
Тes
(С)
Комфортность

P
(гПа)

Po
(гПа)
Тmin
(С)
Tmax
(С)
R
(мм)
SD
(см)
00:45 20.05 В  16 км    8/8 870 м  +26.0  +20.0  70  +32  +33  очень
душно 
1016.5  987.1         
00:50 20.05 В  16 км    8/8 870 м  +26.0  +20.0  70  +32  +34  очень
душно 
1016.5  987.1         
00:56 20.05 В  16 км    8/8 870 м  +26.0  +19.6  68  +32  +34  очень
душно 
1016.5  987.1         
01:26 20.05 В  4
{7} 
16 км    8/8 810 м  +26.0  +20.0  70  +32  +33  очень
душно 
1016.5  987.1         
01:31 20.05 ЮВ  16 км    8/8 840 м  +26.0  +20.0  70  +32  +33  очень
душно 
1016.2  986.8         
01:36 20.05 В  16 км    5/5 870 м  +26.0  +19.0  65  +31  +34  очень
душно 
1016.2  986.8         
01:56 20.05 ЮВ  16 км    2/2 900 м  +25.8  +18.9  66  +31  +37  очень
душно 
1016.3  986.8         
02:56 20.05 В  16 км    5/5 900 м  +25.1  +19.0  69  +30  +31  душно  1016.7  987.1         
03:56 20.05 В  16 км    5/5 900 м  +24.2  +19.2  74  +29  +30  душно  1017.3  987.7         
04:56 20.05 ЮВ  16 км    2/2 960 м  +23.7  +19.2  76  +29  +29  душно  1017.6  988.1  +23.6  +26.7     
05:56 20.05 ЮВ  16 км    2/2 1170 м  +23.2  +19.3  79  +30  +30  очень
душно 
1017.9  988.4         
06:56 20.05   16 км    5/5 1110 м  +23.2  +19.7  81  +30  +30  очень
душно 
1018.2  988.7         
07:56 20.05 ЮВ  16 км    2/2 1110 м  +23.2  +19.9  82  +30  +30  очень
душно 
1018.1  988.7         
08:56 20.05   16 км    ясно  +23.2  +19.7  81  +30  +30  очень
душно 
1018.1  988.7         
09:56 20.05   16 км    ясно  +22.1  +19.4  85  +28  +28  душно  1018.2  988.7         
10:56 20.05   16 км    ясно  +21.6  +19.3  87  +27  +27  душно  1017.2  987.7  +21.6  +23.7     
11:56 20.05 ЮЗ  16 км    2/2 930 м  +20.9  +19.0  89  +26  +26  душно  1016.5  987.1         
12:56 20.05   16 км    ясно  +20.1  +18.6  91  +23  +23  комфорт  1016.0  986.4         
13:51 20.05 З  16 км    8/8 720 м  +20.0  +19.0  94  +24  +24  комфорт  1016.0  986.4         
13:56 20.05 З  16 км    8/8 720 м  +19.9  +18.7  93  +24  +24  комфорт  1016.0  986.4         
14:06 20.05 З  16 км    5/5 750 м  +20.0  +19.0  94  +24  +24  комфорт  1016.0  986.4         
14:56 20.05   16 км    ясно  +20.3  +18.6  90  +24  +24  комфорт  1016.3  986.8         
15:56 20.05   16 км    ясно  +20.1  +18.9  93  +23  +23  комфорт  1016.8  987.1         
16:56 20.05   16 км    ясно  +24.2  +19.7  76  +29  +31  душно  1016.9  987.4  +19.7  +24.3     
17:56 20.05 В  16 км    ясно  +26.3  +19.4  66  +32  +35  очень
душно 
1016.8  987.4         
18:56 20.05 ЮВ  16 км    2/2 1050 м  +27.0  +19.1  62  +32  +39  очень
душно 
1016.4  987.1         
19:56 20.05 В  16 км    5/5 1200 м
[средняя] 
+27.7  +20.0  63  +34  +39  очень
душно 
1016.3  987.1         
20:56 20.05 Ю  16 км    10/10 1110 м  +27.5  +19.3  61  +33  +33  очень
душно 
1015.7  986.4         
21:56 20.05 Ю  16 км    8/8 900 м  +27.0  +20.8  69  +34  +37  очень
душно 
1015.8  986.4         
22:56 20.05 Ю  3
{8} 
16 км    2/2 840 м
[средняя] 
+27.2  +20.3  66  +34  +46  очень
душно 
1015.5  986.1  +24.3  +28.5     
23:56 20.05 Ю  16 км    10/10 1200 м  +27.1  +19.9  65  +33  +33  очень
душно 
1014.8  985.4         
00:56 21.05 ЮВ  16 км    5/5 960 м  +27.0  +20.1  66  +33  +38  очень
душно 
1014.5  985.1         
01:41 21.05 ЮВ  16 км    10/10 870 м  +26.0  +21.0  74  +33  +33  очень
душно 
1014.3  984.8         
01:46 21.05 ЮВ  16 км    10/10 960 м  +26.0  +20.0  70  +32  +32  очень
душно 
1014.3  984.8         
01:56 21.05 ЮВ  16 км    8/8 870 м  +26.2  +20.3  70  +32  +34  очень
душно 
1014.6  985.1         
02:36 21.05 Ю  16 км    10/10 840 м  +26.0  +20.0  70  +32  +32  очень
душно 
1014.6  985.1         
02:51 21.05 Ю  16 км    10/10 900 м  +26.0  +20.0  70  +32  +32  очень
душно 
1014.6  985.1         
02:56 21.05 ЮВ  16 км    10/10 810 м  +25.7  +20.2  72  +32  +32  очень
душно 
1014.6  985.1         
03:55 21.05 ЮВ  16 км  слабая морось  10/10 480 м  +24.0  +20.0  78  +29  +29  душно  1015.7  986.1         
03:56 21.05 ЮВ  16 км  слабая морось  10/10 480 м  +24.0  +20.3  80  +30  +30  очень
душно 
1015.7  986.1         
04:26 21.05 В  16 км  слабая морось  5/5 720 м  +23.0  +21.0  89  +31  +31  очень
душно 
1015.7  986.1         
04:28 21.05 В  16 км    5/5 720 м  +23.0  +21.0  89  +31  +31  очень
душно 
1015.6  986.1         
04:56 21.05 С  16 км    8/8 780 м  +23.7  +20.6  83  +30  +30  очень
душно 
1015.9  986.4  +22.9  +27.8     
05:01 21.05 С  16 км    10/10 780 м  +24.0  +21.0  83  +30  +30  очень
душно 
1016.2  986.8         
05:06 21.05 СЗ  16 км    10/10 810 м  +24.0  +21.0  83  +30  +30  очень
душно 
1016.2  986.8         
05:56 21.05   16 км    10/10 690 м  +23.4  +20.5  84  +31  +31  очень
душно 
1016.4  987.1         
06:56 21.05 СЗ  16 км    10/10 960 м  +22.7  +20.8  89  +30  +30  очень
душно 
1016.8  987.4         
07:56 21.05   16 км    10/10 990 м  +22.9  +20.8  88  +30  +30  очень
душно 
1016.8  987.4         

 

Местоположение метеостанции Wheeler Air Force Base: широта 21.4833 долгота -158.0333 высота над уровнем моря 255 м.

В архиве по умолчанию представлена погода на Базе ВВС Уилер Арми за последние 1-2 суток. Обновление информации о фактической погоде в базе происходит ежечасно! Архивные данные за месяц целиком и за предыдущие месяцы Вы можете получить, выбрав интересующий диапазон дат из раскрывающегося списка и нажав кнопку "Ввод!".

Внимание! Архив погоды МЕТАР в базе сайта хранится не более 60 дней. Нет смысла пытаться выбрать более раннюю дату.

Внимание! Время в таблицах - всемирное. Для получения местного времени необходимо прибавить поправку, которая на Базе ВВС Уилер Арми равна -10 ч.

Ветер - указаны скорость ветра в м/с и направление, откуда дует ветер: С - северный, СВ - северо-восточный, В - восточный, ЮВ - юго-восточный, Ю - южный, ЮЗ - юго-западный, З - западный, СЗ - северо-западный.
Видимость - горизонтальная дальность видимости в метрах или километрах. При видимости от 1 до 10 км при отсутствии осадков обычно наблюдается дымка, при ухудшении видимости до 1 км и менее - туман. В сухую погоду видимость может ухудшаться дымом, пылью или мглою.
Атмосферные явления - указаны явления, наблюдавшиеся в указанный момент времени.
Облачность - указаны через наклонную черту верхняя и нижняя облачность в баллах и высота нижней границы облаков в метрах. Внимание: облачность, как и прочие метеорологические величины в США измеряются автоматическими метеостанциями. Указанные значения в баллах носят условный характер и показывают процент времени, в течение которого, в среднем, лазерный луч высотомера отражался от облаков обратно.
T - Температура воздуха - температура, измеренная на высоте 2 м над землей.
Td - Температура точки росы - температура, при понижении до которой содержащийся в воздухе водяной пар достигнет насыщения.
f - Относительная влажность воздуха - влажноcть воздуха, измеренная на высоте 2 м над землей.
Te - Эффективная температура - температура, которую ощущает одетый по сезону человек в тени. Характеристика душности погоды. При расчете учитывается влияние влажности воздуха и скорости ветра на теплоощущения человека.
Tes - Эффективная температура на солнце - температура, которую ощущает человек, с поправкой на солнечный нагрев. Характеристика знойности погоды. Зависит от высоты солнца над горизонтом, облачности и скорости ветра. Ночью, в пасмурную погоду, а также при ветре 12 м/с и более поправка равна нулю.
P - Атмосферное давление - приведенное к уровню моря атмосферное давление.
Po - Атмосферное давление - измеренное на уровне метеостанции атмосферное давление.
Tmin - Минимальная температура - минимум температуры воздуха на высоте 2 м над землей.
Tmax - Максимальная температура - максимум температуры воздуха на высоте 2 м над землей.
R - Количество осадков - Количество выпавших осадков за 3 или 6 часов, мм.
SD - Снежный покров - Высота снежного покрова, см.